VK6DUG Weather Reports


time (UTC)temp
F
wind
direction
speed
knots
gust
knots
rain 1hr
in
rain 24hr
in
rain mn
in
humidity
%
barometer
mb
20260506034027 68 90 1.7 3.5 0.00 0.00 0.00 60 1032.4
20260506033024 67 69 1.7 7.8 0.00 0.00 0.00 61 1032.6
20260506032023 67 63 2.6 5.2 0.00 0.00 0.00 61 1032.6
20260506031019 67 73 2.6 5.2 0.00 0.00 0.00 62 1032.7
20260506030016 67 123 0.9 3.5 0.00 0.00 0.00 61 1032.7
20260506025033 66 106 0.9 4.3 0.00 0.00 0.00 64 1032.8
20260506024030 65 107 1.7 7.0 0.00 0.00 0.00 64 1033.0
20260506023028 65 111 2.6 6.1 0.00 0.00 0.00 64 1032.8
20260506022025 65 122 1.7 5.2 0.00 0.00 0.00 65 1033.0
20260506021022 64 125 2.6 6.1 0.00 0.00 0.00 67 1033.0
20260506020020 64 122 3.5 7.0 0.00 0.00 0.00 68 1033.1
20260506015017 63 129 2.6 6.1 0.00 0.00 0.00 69 1033.1
20260506014036 63 149 2.6 4.3 0.00 0.00 0.00 70 1033.0
20260506013033 63 143 2.6 4.3 0.00 0.00 0.00 70 1033.0
20260506012030 62 140 1.7 5.2 0.00 0.00 0.00 71 1032.9
20260506011028 62 125 2.6 5.2 0.00 0.00 0.00 72 1032.9
20260506010025 61 118 2.6 5.2 0.00 0.00 0.00 74 1032.9
20260506005022 60 114 2.6 7.0 0.00 0.00 0.00 75 1032.8
20260506004020 60 113 2.6 7.8 0.00 0.00 0.00 76 1032.7
20260506003017 59 57 2.6 5.2 0.00 0.00 0.00 78 1032.8
20260506002035 58 88 3.5 6.1 0.00 0.00 0.00 79 1032.7
20260506001032 57 53 2.6 6.1 0.00 0.00 0.00 81 1032.6
20260506000030 56 93 2.6 5.2 0.00 0.00 0.00 83 1032.5
20260505235027 55 109 2.6 5.2 0.00 0.00 0.00 84 1032.3
20260505234024 55 102 1.7 4.3 0.00 0.00 0.00 83 1032.1
20260505233021 55 221 0.9 3.5 0.00 0.00 0.00 83 1032.0
20260505232018 55 82 2.6 6.1 0.00 0.00 0.00 83 1031.9
20260505231035 55 25 3.5 7.0 0.00 0.00 0.00 83 1031.9
20260505230030 55 89 2.6 4.3 0.00 0.00 0.00 83 1031.8
20260505225026 55 37 2.6 5.2 0.00 0.00 0.00 83 1031.7
20260505224023 55 35 2.6 7.8 0.00 0.00 0.00 83 1031.6
20260505223020 55 135 3.5 7.0 0.00 0.00 0.00 83 1031.5
20260505222035 55 124 1.7 4.3 0.00 0.00 0.00 83 1031.5
20260505221030 55 189 3.5 5.2 0.00 0.00 0.00 82 1031.3
20260505220025 55 25 2.6 4.3 0.00 0.00 0.00 82 1031.3
20260505215019 55 70 2.6 5.2 0.00 0.00 0.00 82 1031.2
20260505214035 55 18 2.6 7.0 0.00 0.00 0.00 83 1031.2
20260505213029 55 4 2.6 5.2 0.00 0.00 0.00 83 1031.0
20260505212024 55 93 1.7 5.2 0.00 0.00 0.00 83 1031.0
20260505211018 55 7 4.3 6.1 0.00 0.00 0.00 83 1030.9
20260505210034 55 124 3.5 5.2 0.00 0.00 0.00 83 1030.9
20260505205027 55 184 4.3 6.1 0.00 0.00 0.00 82 1030.8
20260505204023 55 216 0.9 2.6 0.00 0.00 0.00 82 1030.8
20260505203017 55 118 3.5 7.8 0.00 0.00 0.00 83 1030.7
20260505202033 55 174 4.3 6.1 0.00 0.00 0.00 83 1030.8
20260505201028 54 78 0.9 3.5 0.00 0.00 0.00 83 1030.8
20260505200024 55 161 1.7 3.5 0.00 0.00 0.00 82 1030.6
20260505195018 55 92 1.7 3.5 0.00 0.00 0.00 82 1030.7
20260505194034 55 118 2.6 4.3 0.00 0.00 0.00 81 1030.7
20260505193029 55 122 2.6 4.3 0.00 0.00 0.00 81 1030.8
20260505192022 54 129 1.7 3.5 0.00 0.00 0.00 81 1030.8
20260505191035 54 126 1.7 3.5 0.00 0.00 0.00 81 1030.7
20260505190028 54 118 1.7 3.5 0.00 0.00 0.00 81 1030.8
20260505185022 54 133 0.9 2.6 0.00 0.00 0.00 80 1030.7
20260505184017 54 108 1.7 3.5 0.00 0.00 0.00 80 1030.6
20260505183033 54 77 1.7 3.5 0.00 0.00 0.00 80 1030.7
20260505182026 54 47 1.7 4.3 0.00 0.00 0.00 81 1030.7
20260505181016 54 35 1.7 4.3 0.00 0.00 0.00 82 1030.7
20260505180034 53 68 1.7 3.5 0.00 0.00 0.00 86 1030.5
20260505175027 52 89 1.7 3.5 0.00 0.00 0.00 90 1030.5
20260505174020 51 84 0.9 1.7 0.00 0.00 0.00 91 1030.3
20260505173034 50 103 1.7 2.6 0.00 0.00 0.00 92 1030.4
20260505172029 49 95 0.9 2.6 0.00 0.00 0.00 92 1030.3
20260505171022 49 101 0.9 1.7 0.00 0.00 0.00 91 1030.4
20260505170017 49 100 0.9 1.7 0.00 0.00 0.00 91 1030.3
20260505165031 50 71 0.9 2.6 0.00 0.00 0.00 91 1030.3
20260505164025 50 91 1.7 2.6 0.00 0.00 0.00 91 1030.3
20260505163021 50 73 1.7 2.6 0.00 0.00 0.00 91 1030.2
20260505162035 50 94 0.9 1.7 0.00 0.00 0.00 91 1030.1
20260505161028 51 49 0.9 2.6 0.00 0.00 0.00 91 1030.0
20260505153029 51 65 0.9 1.7 0.00 0.00 0.00 90 1029.9
20260505152021 51 75 0.9 1.7 0.00 0.00 0.00 90 1029.9
20260505151017 52 96 0.9 1.7 0.00 0.00 0.00 90 1029.9
20260505125015 55 93 0.9 1.7 0.00 0.00 0.00 87 1029.6
20260505124030 55 127 0.9 1.7 0.00 0.00 0.00 86 1029.7
20260505123025 54 125 0.9 1.7 0.00 0.00 0.00 84 1029.6
20260505122021 55 136 0.9 1.7 0.00 0.00 0.00 83 1029.6
20260505121016 56 148 0.9 1.7 0.00 0.00 0.00 83 1029.5
20260505120031 57 150 0.9 1.7 0.00 0.00 0.00 81 1029.5
20260505115026 58 124 0.9 2.6 0.00 0.00 0.00 81 1029.5
20260505114021 58 128 0.9 1.7 0.00 0.00 0.00 78 1029.5
20260505113016 59 144 0.9 1.7 0.00 0.00 0.00 77 1029.4
20260505112033 59 132 0.9 2.6 0.00 0.00 0.00 77 1029.4
20260505111029 60 132 0.9 1.7 0.00 0.00 0.00 75 1029.2
20260505102027 63 123 0.9 1.7 0.00 0.00 0.00 71 1028.7
20260505101021 63 148 0.9 2.6 0.00 0.00 0.00 70 1028.7
20260505100017 64 159 0.9 1.7 0.00 0.00 0.00 71 1028.6
20260505095029 64 149 0.9 1.7 0.00 0.00 0.00 71 1028.5
20260505094023 65 164 0.9 2.6 0.00 0.00 0.00 71 1028.5
20260505093017 65 176 0.9 3.5 0.00 0.00 0.00 71 1028.5
20260505092032 66 195 1.7 2.6 0.00 0.00 0.00 70 1028.4
20260505091028 66 156 1.7 3.5 0.00 0.00 0.00 69 1028.4
20260505090024 67 204 1.7 3.5 0.00 0.00 0.00 68 1028.4
20260505085019 67 203 2.6 3.5 0.00 0.00 0.00 68 1028.3
20260505084036 67 209 3.5 6.1 0.00 0.00 0.00 67 1028.2
20260505083032 68 204 3.5 5.2 0.00 0.00 0.00 66 1028.2
20260505082029 67 196 3.5 7.0 0.00 0.00 0.00 66 1028.2
20260505081026 68 209 4.3 6.1 0.00 0.00 0.00 66 1028.2
20260505080021 68 198 3.5 7.0 0.00 0.00 0.00 65 1028.2
20260505075018 68 189 4.3 6.1 0.00 0.00 0.00 65 1028.1
20260505074016 68 213 4.3 8.7 0.00 0.00 0.00 64 1028.2
20260505073033 69 203 4.3 9.6 0.00 0.00 0.00 62 1028.2
20260505072031 69 207 5.2 7.8 0.00 0.00 0.00 62 1028.2
20260505071028 69 201 4.3 8.7 0.00 0.00 0.00 61 1028.2
20260505070026 70 190 4.3 7.0 0.00 0.00 0.00 60 1028.2
20260505065023 70 214 4.3 8.7 0.00 0.00 0.00 59 1028.1
20260505064020 70 195 4.3 6.1 0.00 0.00 0.00 59 1028.2
20260505063017 70 208 5.2 7.8 0.00 0.00 0.00 59 1028.1
20260505062035 70 195 4.3 6.1 0.00 0.00 0.00 59 1028.0
20260505061032 70 192 3.5 5.2 0.00 0.00 0.00 59 1028.1
20260505060029 70 193 3.5 6.1 0.00 0.00 0.00 59 1028.1
20260505055027 70 194 5.2 7.8 0.00 0.00 0.00 58 1028.1
20260505054024 70 196 4.3 6.1 0.00 0.00 0.00 59 1028.0
20260505053021 70 205 4.3 6.1 0.00 0.00 0.00 58 1028.1
20260505052019 71 177 2.6 5.2 0.00 0.00 0.00 53 1028.2
20260505051016 70 212 2.6 4.3 0.00 0.00 0.00 53 1028.5
20260505041021 70 98 0.9 2.6 0.00 0.00 0.00 53 1029.4
20260505040018 70 331 0.9 2.6 0.00 0.00 0.00 53 1029.5
20260505035015 69 261 0.9 2.6 0.00 0.00 0.00 54 1029.7